Regional Weather Roundup
Issued by NWS

Home | Current Version | Previous Version | Graphics & Text | Print | Product List | Glossary On
Versions: 1 2 3 4 5 6 7 8 9 10 11 12 13 14 15 16 17 18 19 20 21 22 23 24 25 26 27 28 29 30 31 32 33 34 35 36 37 38 39 40 41 42 43 44 45 46 47 48 49 50
000
ASUS43 KBIS 262202
RWRND

NORTH DAKOTA REGIONAL WEATHER ROUNDUP
NATIONAL WEATHER SERVICE BISMARCK ND
500 PM CDT WED JUL 26 2017

NOTE: "FAIR" INDICATES FEW OR NO CLOUDS BELOW 12,000 FEET WITH NO
SIGNIFICANT WEATHER AND/OR OBSTRUCTIONS TO VISIBILITY.


NDZ001>003-009>011-017-262300-
NORTHWEST NORTH DAKOTA

CITY           SKY/WX    TMP DP  RH WIND       PRES   REMARKS
WILLISTON      SUNNY     90  47  22 SE5       30.09F
MINOT          SUNNY     85  51  31 VRB7      30.11F
MINOT AFB      SUNNY     82  48  30 N7        30.10F
$$

NDZ018>021-031>035-040>046-262300-
SOUTHWEST NORTH DAKOTA

CITY           SKY/WX    TMP DP  RH WIND       PRES   REMARKS
BISMARCK       SUNNY     87  49  26 N13G18    30.09F
DICKINSON      MOSUNNY   89  51  27 SE10G22   30.09F
GARRISON         N/A     85  49  28 NE6       30.11S
HETTINGER ARPT MOSUNNY   87  47  24 SE5       30.12F
$$

NDZ004>008-012>016-024-026-027-054-262300-
NORTHEAST NORTH DAKOTA

CITY           SKY/WX    TMP DP  RH WIND       PRES   REMARKS
GRAND FORKS    MOSUNNY   81  61  50 N13       30.05S
GRND FRKS AFB  SUNNY     81  58  46 N12       30.07S
DEVILS LAKE    MOSUNNY   78  56  46 N12       30.11F
$$

NDZ022-023-025-028>030-036>039-047>053-262300-
SOUTHEAST NORTH DAKOTA

CITY           SKY/WX    TMP DP  RH WIND       PRES   REMARKS
FARGO          MOSUNNY   82  60  47 N13       30.04S
JAMESTOWN      SUNNY     82  56  40 N12       30.09S
$$





USA.gov is the U.S. government's official web portal to all federal, state and local government web resources and services.